www.pogodaiklimat.ru
ПОГОДА в Пскеме

Архив погоды в Пскеме (Ташкентская область, Узбекистан)

Время
и дата
02:30 17.04
02:40 17.04
02:50 17.04
03:00 17.04
03:10 17.04
03:20 17.04
03:30 17.04
03:40 17.04
03:50 17.04
04:00 17.04
04:10 17.04
04:20 17.04
04:30 17.04
04:40 17.04
04:50 17.04
05:00 17.04
05:10 17.04
05:20 17.04
05:30 17.04
05:40 17.04
05:50 17.04
06:00 17.04
06:10 17.04
06:20 17.04
06:30 17.04
06:40 17.04
06:50 17.04
07:00 17.04
07:10 17.04
07:20 17.04
08:30 17.04
08:50 17.04
10:40 17.04
16:20 17.04
16:40 17.04
16:50 17.04
17:00 17.04
17:10 17.04
17:20 17.04
17:30 17.04
17:40 17.04
17:50 17.04
18:00 17.04
18:10 17.04
18:20 17.04
18:30 17.04
18:40 17.04
18:50 17.04
19:00 17.04
19:10 17.04
19:20 17.04
19:30 17.04
19:40 17.04
19:50 17.04
20:00 17.04
20:20 17.04
20:30 17.04
20:40 17.04
20:50 17.04
21:00 17.04
21:10 17.04
21:20 17.04
21:30 17.04
21:40 17.04
21:50 17.04
22:00 17.04
22:10 17.04
22:30 17.04
22:50 17.04
23:00 17.04
23:10 17.04
23:20 17.04
23:30 17.04
23:40 17.04
23:50 17.04
00:00 18.04
00:20 18.04
00:30 18.04
00:40 18.04
01:00 18.04
01:20 18.04
01:30 18.04
01:40 18.04
02:00 18.04
02:10 18.04
02:20 18.04
02:30 18.04
02:40 18.04
02:50 18.04
03:00 18.04
03:20 18.04
03:30 18.04
03:40 18.04
03:50 18.04
04:00 18.04
04:20 18.04
04:40 18.04
05:00 18.04
05:10 18.04
05:50 18.04
06:00 18.04
06:20 18.04
06:30 18.04
06:40 18.04
07:00 18.04
07:10 18.04
07:30 18.04
07:50 18.04
08:00 18.04
08:10 18.04
08:30 18.04
10:50 18.04
11:30 18.04
12:10 20.04
12:30 20.04
12:40 20.04
13:00 20.04
13:10 20.04
13:30 20.04
13:40 20.04
14:00 20.04
14:10 20.04
14:20 20.04
14:30 20.04
14:50 20.04
15:00 20.04
15:10 20.04
15:20 20.04
15:30 20.04
15:50 20.04
16:10 20.04
16:20 20.04
16:30 20.04
16:40 20.04
16:50 20.04
17:00 20.04
17:10 20.04
17:20 20.04
17:30 20.04
17:40 20.04
17:50 20.04
18:00 20.04
18:10 20.04
18:20 20.04
Ветер
(напр.,м/с)
Видимость Явления Солнечная радиация
(Вт/м2)
Т
(С)
Тd
(С)
f
(%)
Тe
(С)
Тes
(С)
Комфортность P
(гПа)
Po
(гПа)
Тmin
(С)
Tmax
(С)
R
(мм)
СВ 1.2
{2.6}
+4.7 +4.7 100 +3 +3 1024.5 881.0 +5.0 +4.7
С 1.3
{2.4}
+4.9 +4.9 100 +3 +3 1024.4 880.9 +4.9 +4.7
С 1.0
{2.4}
+4.7 +4.7 100 +3 +3 1024.3 880.8 +4.9 +4.7
СЗ 1.6
{2.8}
+5.0 +5.0 100 +3 +3 1024.3 880.8 +5.0 +4.7
СВ 0.7
{1.2}
+4.6 +4.6 100 +4 +4 1024.2 880.7 +5.1 +4.6
СВ 1.6
{2.1}
+4.2 +4.2 100 +2 +2 1024.1 880.6 +4.6 +4.1
С 0.8
{2.0}
+3.8 +3.8 100 +3 +3 1024.1 880.6 +4.2 +3.8
СЗ 0.9
{1.4}
+4.0 +4.0 100 +3 +3 1024.0 880.5 +4.0 +3.7
СЗ 0.9
{1.5}
+4.3 +4.3 100 +3 +3 1023.8 880.4 +4.3 +3.9
С 1.2
{2.1}
+4.3 +4.3 100 +2 +2 1023.7 880.3 +4.4 +4.3
С 1.4
{2.8}
+3.9 +3.9 100 +2 +2 1023.6 880.2 +4.3 +3.9
С 1.6
{2.9}
+4.2 +4.2 100 +2 +2 1023.6 880.2 +4.2 +3.9
С 1.7
{2.8}
+4.4 +4.4 100 +2 +2 1023.4 880.0 +4.4 +4.2
С 1.7
{2.3}
+4.3 +4.3 100 +2 +2 1023.4 880.0 +4.4 +4.2
С 1.2
{1.8}
+3.9 +3.9 100 +2 +2 1023.4 880.0 +4.3 +3.9
С 1.7
{2.6}
+4.1 +4.1 100 +1 +1 1023.3 879.9 +4.1 +3.6
С 1.7
{2.6}
+4.4 +4.4 100 +2 +2 1023.3 879.9 +4.4 +4.1
СЗ 1.1
{2.0}
+4.2 +4.2 100 +2 +2 1023.4 880.0 +4.4 +4.0
СВ 1.9
{2.9}
+3.9 +3.9 100 +1 +1 1023.4 880.0 +4.3 +3.8
СВ 1.8
{2.4}
+4.2 +4.2 100 +1 +1 1023.4 880.0 +4.3 +3.9
С 1.7
{2.7}
+3.9 +3.9 100 +1 +1 1023.6 880.2 +4.3 +3.9
С 0.9
{1.8}
+3.9 +3.9 100 +2 +2 1023.7 880.3 +3.9 +3.6
С 1.0
{1.7}
+4.0 +4.0 100 +2 +2 1023.7 880.3 +4.1 +3.9
С 0.7
{2.6}
+4.2 +4.2 100 +3 +3 1023.8 880.4 +4.2 +4.0
С 1.3
{2.6}
+4.5 +4.5 100 +2 +2 1024.0 880.5 +4.6 +4.2
С 1.8
{2.7}
+5.0 +5.0 100 +2 +2 1024.0 880.5 +5.2 +4.5
СВ 2.2
{3.0}
+5.2 +5.2 100 +2 +2 1024.0 880.5 +5.2 +5.0
С 1.3
{2.6}
+6.1 +6.1 100 +4 +4 1024.1 880.6 +6.1 +5.2
СВ 1.2
{2.2}
+7.2 +7.2 100 +6 +6 1024.2 880.7 +7.2 +6.1
СВ 1.6
{2.8}
+7.4 +7.4 100 +5 +5 1024.2 880.7 +7.5 +7.2
В 1.2
{2.0}
+10.8 +10.8 100 +10 +10 1024.0 880.5 +10.8 +10.5
Ю 1.3
{2.9}
+11.5 +11.5 100 +11 +11 1023.8 880.4 +11.5 +11.1
С 1.2
{2.7}
+15.4 +4.7 49 +16 +16 1023.3 879.9 +15.5 +15.3
СВ 2.1
{3.6}
+18.7 +2.2 33 +19 +19 1019.8 876.8 +18.7 +18.5
СВ 2.1
{4.2}
+18.5 +0.3 29 +19 +19 1019.7 876.7 +18.5 +18.3
С 1.6
{3.0}
+18.5 -0.1 29 +19 +19 1019.7 876.7 +18.6 +18.5
С 1.8
{5.0}
+18.3 +0.2 29 +19 +19 1019.7 876.7 +18.6 +18.3
С 1.6
{3.0}
+18.3 +2.8 36 +19 +19 1019.7 876.7 +18.4 +18.2
С 2.3
{4.2}
+18.1 +1.6 33 +19 +19 1019.5 876.6 +18.3 +18.1
С 1.8
{3.5}
+18.0 +0.2 30 +19 +19 1019.4 876.5 +18.1 +18.0
С 1.5
{3.3}
+18.1 +2.3 35 +19 +19 1019.4 876.5 +18.1 +18.0
СЗ 1.3
{2.2}
+18.2 +0.8 31 +19 +19 1019.4 876.5 +18.2 +18.1
З 3.4
{5.8}
+16.6 +1.7 37 +16 +16 1019.3 876.4 +18.2 +16.6
С 1.7
{3.7}
+15.7 +2.1 40 +16 +16 1019.4 876.5 +16.6 +15.7
СЗ 1.2
{2.9}
+15.6 +2.2 40 +16 +16 1019.4 876.5 +15.7 +15.7
СЗ 1.1
{1.9}
+15.4 +0.5 36 +16 +16 1019.4 876.5 +15.6 +15.4
СЗ 0.5
{1.2}
+15.2 +0.4 36 +17 +17 1019.4 876.5 +15.4 +15.2
СЗ 0.4
{0.9}
+14.8 +0.9 39 +16 +16 1019.4 876.5 +15.2 +14.9
СЗ 0.7
{1.2}
+14.4 +2.2 44 +15 +15 1019.6 876.6 +14.8 +14.5
СЗ 1.5
{2.2}
+14.3 +0.9 40 +15 +15 1019.6 876.6 +14.4 +14.3
СЗ 1.3
{2.1}
+14.0 +2.2 45 +14 +14 1019.8 876.8 +14.3 +14.0
С 1.2
{2.5}
+13.3 +2.7 48 +14 +14 1019.8 876.8 +14.0 +13.3
С 0.9
{1.5}
+13.0 +3.5 52 +14 +14 1019.9 876.9 +13.3 +13.0
С 0.6
{1.3}
+12.7 +2.5 50 +14 +14 1020.0 877.0 +13.0 +12.7
С 0.7
{1.3}
+12.2 +4.7 60 +13 +13 1020.0 877.0 +12.7 +12.2
С 2.0
{3.3}
+12.3 +3.1 53 +12 +12 1020.2 877.2 +12.6 +12.3
С 1.5
{2.6}
+12.1 +3.0 54 +12 +12 1020.2 877.2 +12.3 +12.1
С 1.1
{1.7}
+11.8 +7.2 74 +12 +12 1020.2 877.2 +12.1 +11.8
С 0.9
{1.8}
+11.1 +5.5 69 +11 +11 1020.3 877.3 +11.8 +11.1
С 1.2
{2.3}
+11.2 +3.9 61 +11 +11 1020.3 877.3 +11.2 +11.0
С 1.1
{2.2}
+11.3 +3.7 59 +11 +11 1020.5 877.4 +11.4 +11.2
С 1.2
{2.0}
+11.1 +3.4 59 +11 +11 1020.3 877.3 +11.3 +11.0
С 1.4
{2.2}
+11.2 +3.6 59 +11 +11 1020.3 877.3 +11.2 +11.1
СВ 0.8
{2.3}
+10.1 +6.6 79 +10 +10 1020.5 877.4 +11.3 +10.1
С 1.3
{2.0}
+10.2 +5.3 71 +10 +10 1020.3 877.3 +10.4 +10.1
С 1.1
{1.8}
+9.6 +7.9 89 +9 +9 1020.3 877.3 +10.3 +9.6
СВ 1.4
{2.4}
+9.5 +8.3 92 +8 +8 1020.2 877.2 +9.6 +9.3
С 1.0
{1.9}
+9.3 +7.6 89 +9 +9 1020.2 877.2 +9.7 +9.3
С 1.4
{2.3}
+9.5 +4.5 71 +9 +9 1020.1 877.1 +9.5 +8.8
СЗ 0.8
{1.4}
+9.1 +7.2 88 +9 +9 1020.1 877.1 +9.7 +9.1
СВ 1.1
{1.8}
+8.6 +8.6 100 +8 +8 1020.0 877.0 +9.1 +8.6
СВ 1.4
{1.9}
+8.5 +8.5 100 +7 +7 1019.9 876.9 +8.7 +8.5
С 1.1
{2.2}
+8.8 +7.1 89 +8 +8 1019.8 876.8 +8.8 +8.3
СВ 1.3
{2.5}
+8.0 +8.0 100 +7 +7 1019.8 876.8 +8.8 +8.0
С 1.2
{2.2}
+8.1 +8.1 100 +7 +7 1019.7 876.7 +8.4 +8.0
С 0.7
{1.4}
+7.9 +7.9 100 +7 +7 1019.6 876.6 +8.1 +7.9
СВ 1.0
{1.9}
+8.3 +8.3 100 +7 +7 1019.2 876.3 +8.4 +8.3
В 1.6
{2.9}
+8.1 +8.1 100 +6 +6 1019.1 876.2 +8.3 +8.0
СВ 1.9
{2.7}
+8.8 +5.6 80 +7 +7 1019.0 876.1 +8.8 +8.0
С 1.1
{2.1}
+8.3 +6.7 90 +7 +7 1018.8 875.9 +8.3 +7.8
С 0.4
{1.7}
+7.5 +7.5 100 +8 +8 1018.5 875.7 +8.1 +7.5
СВ 0.9
{1.8}
+7.8 +7.1 95 +7 +7 1018.4 875.6 +7.8 +7.5
СВ 0.8
{1.4}
+7.3 +7.3 100 +6 +6 1018.3 875.5 +8.1 +7.3
СВ 1.3
{2.2}
+7.5 +7.5 100 +6 +6 1018.3 875.5 +7.7 +7.2
СВ 0.9
{1.7}
+7.1 +7.1 100 +6 +6 1018.3 875.5 +7.7 +7.1
ЮЗ 1.0
{2.1}
+7.2 +7.2 100 +6 +6 1018.2 875.4 +7.2 +6.9
З 0.8
{1.5}
+7.2 +7.2 100 +6 +6 1018.2 875.4 +7.3 +7.1
В 0.8
{2.3}
+7.2 +7.2 100 +6 +6 1018.1 875.3 +7.4 +7.2
СВ 1.5
{2.1}
+7.2 +7.2 100 +5 +5 1018.0 875.2 +7.3 +7.1
СВ 1.9
{2.4}
+7.3 +7.3 100 +5 +5 1018.0 875.2 +7.4 +6.9
З 1.6
{2.5}
+6.7 +6.7 100 +5 +5 1018.0 875.2 +7.0 +6.6
ЮЗ 0.6
{1.1}
+6.8 +6.8 100 +6 +6 1018.0 875.2 +6.9 +6.7
В 1.3
{1.8}
+6.4 +6.4 100 +5 +5 1017.9 875.1 +7.0 +6.4
СВ 1.0
{1.9}
+6.1 +6.1 100 +5 +5 1017.9 875.1 +6.4 +5.8
СВ 1.4
{2.0}
+7.4 +5.6 89 +6 +6 1017.7 875.0 +7.4 +6.1
СЗ 1.1
{1.7}
+6.8 +5.7 93 +6 +6 1017.7 875.0 +6.8 +6.3
СВ 1.1
{2.2}
+6.2 +6.2 100 +5 +5 1017.6 874.9 +6.5 +6.2
СВ 1.9
{2.9}
+5.9 +5.9 100 +3 +3 1017.5 874.8 +7.3 +5.8
С 1.0
{2.2}
+7.0 +3.3 78 +6 +6 1017.5 874.8 +7.0 +5.9
С 0.8
{1.6}
+5.9 +5.9 100 +5 +5 1017.6 874.9 +6.2 +5.7
С 1.0
{1.5}
+6.7 +3.8 82 +6 +6 1017.6 874.9 +6.8 +5.9
СВ 0.9
{1.6}
+6.0 +4.9 92 +5 +5 1017.7 875.0 +6.3 +6.0
СВ 0.9
{1.5}
+7.0 +3.2 77 +6 +6 1017.7 875.0 +6.9 +6.0
СВ 0.8
{1.5}
+8.0 +5.6 85 +8 +8 1017.7 875.0 +7.9 +7.0
СВ 1.7
{2.5}
+8.4 +5.6 82 +7 +7 1017.5 874.8 +8.7 +8.2
С 1.1
{2.7}
+9.4 +9.4 100 +8 +8 1017.4 874.7 +9.4 +8.4
ЮВ 1.0
{2.1}
+10.5 +3.1 60 +10 +10 1017.4 874.7 +10.5 +10.1
В 1.0
{2.3}
+11.9 +0.8 47 +12 +12 1017.3 874.6 +11.9 +11.2
ЮВ 0.8
{2.0}
+12.6 +0.3 43 +13 +13 1017.2 874.5 +12.6 +11.9
ЮВ 0.8
{2.0}
+13.1 +1.2 44 +14 +14 1017.1 874.4 +13.1 +12.6
СВ 1.3
{2.3}
+13.9 +2.1 45 +14 +14 1016.8 874.2 +14.0 +13.6
СВ 1.5
{4.3}
+18.7 -2.9 23 +20 +20 1015.6 873.1 +18.8 +18.5
ЮВ 1.8
{3.0}
+19.5 -2.7 22 +20 +20 1015.1 872.7 +19.6 +19.4
ЮВ 2.4
{3.7}
+22.6 +4.1 30 +23 +23 комфорт 1011.7 869.7 +22.8 +22.6
Ю 2.4
{4.5}
+22.8 +6.7 35 +23 +23 комфорт 1011.7 869.7 +22.9 +22.4
Ю 2.9
{4.6}
+22.7 +5.4 33 +23 +23 комфорт 1011.6 869.6 +22.8 +22.5
Ю 3.3
{5.2}
+22.6 +3.9 29 +23 +23 комфорт 1011.6 869.6 +22.8 +22.5
Ю 3.4
{5.0}
+22.8 +3.4 28 +23 +23 комфорт 1011.6 869.6 +23.0 +22.6
Ю 3.5
{5.0}
+23.1 +6.1 33 +24 +24 комфорт 1011.6 869.6 +23.1 +22.8
Ю 3.2
{5.1}
+23.1 +4.9 31 +23 +23 комфорт 1011.6 869.6 +23.1 +23.0
Ю 4.1
{5.7}
+23.2 +5.5 32 +24 +24 комфорт 1011.5 869.5 +23.5 +23.2
Ю 3.5
{5.4}
+23.4 +7.0 35 +24 +24 комфорт 1011.5 869.5 +23.4 +23.2
Ю 4.0
{6.3}
+23.4 +4.2 29 +23 +23 комфорт 1011.4 869.4 +23.5 +23.2
Ю 4.8
{7.0}
+23.2 +6.3 34 +24 +24 комфорт 1011.4 869.4 +23.4 +23.2
Ю 6.2
{8.3}
+22.7 +6.6 35 +23 +23 комфорт 1011.2 869.2 +22.9 +22.7
ЮЗ 6.3
{8.9}
+22.6 +7.8 39 +24 +24 комфорт 1011.2 869.2 +22.7 +22.5
ЮЗ 6.7
{9.9}
+22.3 +9.6 44 +24 +24 комфорт 1011.2 869.2 +22.6 +22.3
Ю 7.0
{10.6}
+22.0 +9.7 45 +24 +24 комфорт 1011.2 869.2 +22.3 +22.0
ЮЗ 7.6
{10.4}
+21.9 +9.9 46 +23 +23 комфорт 1011.2 869.2 +22.0 +21.9
ЮЗ 7.6
{10.8}
+21.4 +10.7 50 +23 +23 комфорт 1011.2 869.2 +21.8 +21.4
ЮЗ 7.6
{10.4}
+21.3 +12.0 55 +23 +23 комфорт 1011.3 869.3 +21.5 +21.3
ЮЗ 7.5
{10.7}
+21.1 +11.8 55 +23 +23 комфорт 1011.3 869.3 +21.3 +21.1
ЮЗ 8.0
{12.5}
+20.6 +12.1 58 +22 +22 комфорт 1011.4 869.4 +21.1 +20.6
ЮЗ 7.3
{11.2}
+20.8 +12.6 59 +23 +23 комфорт 1011.5 869.5 +20.8 +20.6
ЮЗ 7.0
{10.9}
+20.7 +13.1 62 +23 +23 комфорт 1011.5 869.5 +20.9 +20.8
ЮЗ 7.1
{10.6}
+20.7 +13.1 62 +23 +23 комфорт 1011.6 869.6 +20.9 +20.7
ЮЗ 7.5
{11.2}
+20.4 +13.3 64 +22 +22 комфорт 1011.6 869.6 +20.7 +20.4
ЮЗ 7.2
{10.4}
+20.1 +13.3 65 +22 +22 комфорт 1011.7 869.7 +20.4 +20.1
ЮЗ 7.0
{10.8}
+19.9 +13.3 66 +21 +21 комфорт 1011.9 869.8 +20.1 +19.9
ЮЗ 6.7
{10.7}
+19.7 +13.2 66 +21 +21 комфорт 1011.9 869.8 +19.9 +19.7
ЮЗ 6.6
{10.5}
+19.5 +13.2 67 +21 +21 комфорт 1012.0 869.9 +19.7 +19.5
ЮЗ 6.6
{9.4}
+19.2 +13.4 69 +20 +20 1012.0 869.9 +19.5 +19.2
ЮЗ 6.7
{11.7}
+18.9 +13.4 70 +19 +19 1012.1 870.0 +19.2 +18.9
ЮЗ 5.8
{9.2}
+18.7 +13.4 71 +19 +19 1012.2 870.1 +18.9 +18.7
Местоположение метеостанции Пскем (Ташкентская область, Узбекистан): широта 41.91 долгота 70.37 высота над уровнем моря 0 м.
В архиве по умолчанию представлена погода в Пскеме за последние 1-2 суток. Обновление информации о фактической погоде в базе происходит ежечасно! Архивные данные за месяц целиком и за предыдущие месяцы Вы можете получить, выбрав интересующий диапазон дат из раскрывающегося списка и нажав кнопку "Ввод!".
*Определитесь, кто Вы:
Внимание! Время в таблицах - местное (без учета летнего времени). Для получения всемирного времени необходимо вычесть поправку, которая равна 5 ч.
Смотрите также архив погоды на ближайших метеорологических станциях:
Партнеры нашего сайта:      
Пояснения к столбцам:
  • Ветер - указаны скорость ветра в м/с - средняя за 10 мин, порывы в срок и между сроками (в фигурных скобках) и направление, откуда дует ветер: С - северный,
  • СВ - северо-восточный, В - восточный, ЮВ - юго-восточный, Ю - южный, ЮЗ - юго-западный, З - западный, СЗ - северо-западный.
  • Видимость - горизонтальная дальность видимости в метрах или километрах. При видимости от 1 до 10 км при отсутствии осадков обычно наблюдается дымка, при ухудшении видимости до 1 км и менее - туман. В сухую погоду видимость может ухудшаться дымом, пылью или мглою.
  • Явления - указаны атмосферные явления, наблюдавшиеся в срок или в последний час перед сроком.
  • Солнечная радиация - мощность потока солнечного излучения на поверхность земли и предметов в Вт/м2.
  • T - Температура воздуха - температура, измеренная на высоте 2 м над землей.
  • Td - Температура точки росы - температура, при понижении до которой содержащийся в воздухе водяной пар достигнет насыщения.
  • f - Относительная влажность воздуха - влажноcть воздуха, измеренная на высоте 2 м над землей.
  • Te - Эффективная температура - температура, которую ощущает одетый по сезону человек в тени. Характеристика душности погоды. При расчете учитывается влияние влажности воздуха и скорости ветра на теплоощущения человека.
  • Tes - Эффективная температура на солнце - температура, которую ощущает человек, с поправкой на солнечный нагрев. Характеристика знойности погоды. Зависит от высоты солнца над горизонтом, облачности и скорости ветра. Ночью, в пасмурную погоду, а также при ветре 12 м/с и более поправка равна нулю.
  • P - Атмосферное давление - приведенное к уровню моря атмосферное давление.
  • Po - Атмосферное давление - измеренное на уровне метеостанции атмосферное давление.
  • Tmin - Минимальная температура - минимум температуры воздуха на высоте 2 м над землей.
  • Tmax - Максимальная температура - максимум температуры воздуха на высоте 2 м над землей.
  • R - Количество осадков - Количество выпавших осадков за период времени, мм. При наведении курсора мыши на число - период времени, за который выпало указанное количество осадков.